World > North America > United States > New York   City of Syracuse, NY

Syracuse, New York Regional Weather

Lat: 43.04N, Lon: 76.14W
Wx Zone: NYZ018Web Search
Syracuse Weather Warning NWS WEATHER ALERT FOR THE SYRACUSE, NY AREA - Issued: 357 AM EST Sat Feb 27 2021 Syracuse Weather Warning  

Our weather pages are very print friendly and they make great conversation starters.

Feedback
Syracuse Weather Map
UTC Time: 2/27/2021, 15:14
Your Time:

Syracuse, NY Regional Weather

Expires:202102271500;;200454
ASUS41 KALY 271410
RWRALY

NEW YORK STATE HOURLY WEATHER ROUNDUP
NATIONAL WEATHER SERVICE ALBANY NY
900 AM EST SAT FEB 27 2021

NOTE: "FAIR" INDICATES FEW OR NO CLOUDS BELOW 12,000 FEET WITH NO
SIGNIFICANT WEATHER AND/OR NO OBSTRUCTIONS TO VISIBILITY.


NYZ005>009-017-018-044>046-055-056-271500-
CENTRAL

  
CITY           SKY/WX    TMP DP  RH WIND       PRES   REMARKS
FULTON         CLOUDY    40  31  70 VRB5      29.94F                  
SYRACUSE       PTSUNNY   40  31  70 SE24G36   29.96F WCI  29          
ROME           LGT RAIN  34  29  82 E12       30.06F WCI  25          
ELMIRA         CLOUDY    39  31  72 SW7       30.03F WCI  34          
BINGHAMTON     CLOUDY    32  30  92 S12       30.03F FOG     WCI  23  
MONTICELLO     MIX PCPN  30  30 100 E7        30.11F FOG     WCI  23  
$$


SKY/WX - Weather  TMP - Temperature  DP - Dew Point  RH - Relative Humidity
WIND - Wind Direction/Speed PRES - Barometric Pressure VSB - Visibility
WCI - Wind Chill Index E13G22 Wind - East Wind 13 mph/Gusts of 22 mph